sat.trackr.live / text

‹ back to catalog

STARLINK-31385

NORAD 58985 · 2024-031W

PAYLOAD ACTIVE UNKNOWN

§ Identity

Operator
Country
US
Launch date
2024-02-15
Launch site
AFWTR
Launch vehicle
Mass (kg)
RCS (m²)

Purposes: comms

External: N2YO · Heavens-Above · Gunter

§ Orbital elements

Epoch: 2026-09-19T20:55:22.757088Z

Period
93.85 min
Inclination
53.1592°
Eccentricity
0.0001084
Mean motion
15.34391157 rev/d
Perigee alt
462.0 km
Apogee alt
463.5 km
Semi-major
6,840.9 km
B*
3.1581e-6
RAAN
108.2926°
Arg perigee
93.2728°
Mean anomaly
266.8398°
Rev number
14,633

§ Raw data

STARLINK-313851 58985U 24031W   26262.87179117 -.00000269  00000+0  31581-5 0  99942 58985  53.1592 108.2926 0001084  93.2728 266.8398 15.34391157146332

JSON: /api/v1/satellites/58985 · /tle

For live sub-satellite position, see the globe view (requires WebGL).

§ Visibility from observer

Set your observer location to see the next 7 days of passes ≥ 10°. The values pass through the URL so the page stays shareable.

No JS? Fill the form by hand. The geolocation button needs JavaScript.